SCOUT A DEB, 2141

Orbit data source: Space-Track

SCOUT A DEB, 2141 is space debris in LEO originally from a launch on Fri, 28 Jan 1966 UTC launched from the Air Force Western Test Range (AFWTR). Debris objects in space refer to the collection of defunct objects orbiting the Earth. Examples of debris include non-operational satellites, rocket bodies, and fragments generated from explosions, collisions, or faulty payload assembly.

Loading next visibility...
SCOUT A DEB details
Identifier
2141, 1966-005D
Orbit
LEO
Last TLE update20 hours ago
Origin
Flag of USUSN BuWeps (US)
ManufacturerUnknown
MissionSpacecraft
Bus & MotorUnknown
MassUnknown
Launch date (UTC)
1966-01-28 (59 years ago)
Launch vehicleUnknown
Launch site
Air Force Western Test Range (AFWTR)
Object type
Payload
Rocket body
Debris
Shape & HBRUnknown
Radar Cross SectionSmall (<0.1 m²)

Expand to show TLE details & history

TLE from 20 hours ago
0 SCOUT A DEB
1 02141U 66005D   24355.69204673  .00001177  00000-0  68594-3 0  9992
2 02141  90.2187 244.6860 0115391 348.5737  11.2827 14.04853235992358
Epoch: 2024-12-20T16:36Z
Definitive object data (Epoch: 2024-12-20T16:36:32.837Z)
Latitude-0.00007°
Longitude-94.20473°
Altitude797.991 km
Speed7.497 km/s
True Right ascension16h 18m 44s
True Declination0° 00' 00"
Sunlit
Object was in daylight at TLE epoch
Visualization TLE readout
Latitude-86.25141°
Longitude82.49318°
Altitude889.895 km
Speed7.415 km/s
Apparent Right ascension00h 02m 21s
Apparent Declination-65° 39' 20"
Sunlit
Object is in daylight
Visualization observer readout
Local Sidereal Time11:42:52
Azimuth184.598° SSW
Elevation-64.11°
Doppler factor1
Orbital elements
Apogee altitude957.691 km
Perigee altitude790.324 km
Semi-major axis7,252.144 km
Eccentricity0.0115391
Inclination90.2187°
RAAN244.686°
Arg. of periapsis348.5737°
True anomaly11.54511°
Mean anomaly11.2827°
Eccentric anomaly11.41353°
Mean motion3.51434 °/min
BSTAR0.00068594
Orbital period102.44 mins
Loading maneuver chart data...
Loading historical data...
Loading historical data...
Loading historical data...
Loading historical data...
Loading historical data...
Loading historical data...
Loading historical data...

SCOUT A DEB Visibility forecast

Observer location: undefined°, undefined

Span
Click to sort rows by Start time (UTC) header in descending order
Start Az.
Max El. time (UTC)
Max El. Az.
Max El.
End time (UTC)
End Az.
9 mins2024-12-21 16:39:02.086Z151.594° SSE2024-12-21 16:44:02.086Z72.316° E35.469°2024-12-21 16:48:02.086Z13.545° NNE
6 mins2024-12-21 18:24:02.086Z246.752° WSW2024-12-21 18:26:02.086Z274.023° WNW19.163°2024-12-21 18:30:02.086Z323.629° NNW
10 mins2024-12-22 05:06:02.086Z5.542° NNE2024-12-22 05:10:02.086Z54.459° ENE44.645°2024-12-22 05:16:02.086Z180.959° SSW
4 mins2024-12-22 06:50:02.086Z307.452° NW2024-12-22 06:52:02.086Z286.143° WNW13.636°2024-12-22 06:54:02.086Z265.676° W
|